Regional Weather Roundup
Issued by NWS Midland/Odessa, TX

Skip options and go directly to product.
Home | Oldest Version | Previous Version | Current Version | All | Text Only | Save Text | Print | Product List | Glossary Off

Skip product version selection by date and time.   

518
ASUS44 KMAF 181210
RWRMAF
MIDLAND AREA WEATHER ROUNDUP
NATIONAL WEATHER SERVICE MIDLAND TX
600 AM CST THU DEC 18 2014

...IN SOUTHWEST TEXAS AND SOUTHEAST NEW MEXICO...

CITY           SKY/WX    TMP DP  RH WIND       PRES   REMARKS
ALPINE         CLEAR     32  26  78 W8        30.18F WCI  25
ANDREWS        FAIR      43  31  62 W7        30.08S WCI  39
ARTESIA        CLEAR     36  30  80 S7        30.09S WCI  30
BIG SPRING     CLEAR     41  35  79 CALM      30.10R
CARLSBAD       PTCLDY    47  34  60 NE3       30.07S
DRYDEN           N/A     45  44  97 W3        30.08S
FORT STOCKTON  PTCLDY    42  29  59 SW10      30.10S WCI  36
GUAD PASS      NOT AVBL
HOBBS          CLEAR     36  30  80 NW7       30.08S WCI  30
MARFA          CLEAR     27  21  80 N5        30.15S WCI  21
MIDLAND AIRPK  CLEAR     47  33  59 W6        30.08S
MIDLAND INTL   CLEAR     40  32  73 W6        30.08R WCI  36
ODESSA         CLEAR     41  30  65 NW7       30.08S WCI  36
PECOS          CLEAR     39  29  68 SW9       30.09S WCI  33
PRESIDIO       FAIR      47  30  52 NW7       30.10S
SEMINOLE       CLEAR     36  30  79 W6        30.09R WCI  31
SNYDER         CLEAR     36  36  99 SW7       30.08R FOG     WCI  31
WINK           PTCLDY    38  27  64 CALM      30.08R
$$
...OTHER STATIONS IN TEXAS...

CITY           SKY/WX    TMP DP  RH WIND       PRES   REMARKS
ABILENE        CLEAR     44  42  93 SW8       30.06S FOG     WCI  39
AMARILLO       CLOUDY    35  35 100 N10       30.04R FOG     WCI  27
AUSTIN         DRZL/FOG  48  48 100 N6        30.09R VSB 3/4
BROWNSVILLE    MOCLDY    71  68  90 SE9       30.00S
CORPUS CHRISTI CLOUDY    68  67  96 SE6       30.01R
DALLAS FTW     DRIZZLE   42  42 100 E6        30.11R FOG     WCI  38
DEL RIO        CLOUDY    53  51  93 NW7       30.08R
EL PASO        PTCLDY    40  33  76 S7        30.11F WCI  35
HOUSTON INT    LGT RAIN  59  59 100 CALM      30.06R
LUBBOCK        CLEAR     33  29  85 W7        30.04R WCI  27
SAN ANGELO     CLOUDY    46  45  96 W5        30.09R FOG
SAN ANTONIO    DRIZZLE   57  55  93 N6        30.07R FOG
WACO           CLOUDY    46  45  96 E5        30.10S FOG
WICHITA FALLS  NOT AVBL
$$
...OTHER LOCATIONS IN NEW MEXICO...

CITY           SKY/WX    TMP DP  RH WIND       PRES   REMARKS
ALAMAGORDO     PTCLDY    39  32  75 S7        30.11S WCI  34
ALBUQUERQUE    PTCLDY    30  27  88 E5        30.12F WCI  25
CANNON AFB     CLEAR     34  27  77 W10       30.05R WCI  26
CLOVIS         CLEAR     32  27  80 W8        30.05R WCI  25
HOLLOMAN AFB   PTCLDY    40  34  81 S7        30.10S WCI  35
ROSWELL        CLEAR     35  28  75 NW3       30.09R
RUIDOSO        CLEAR     30  25  80 NE3       30.09S
SANTA FE       PTCLDY    27  24  89 SW3       30.09S
TRUTH OR CONSE CLOUDY    37  29  72 CALM      30.11F
TUCUMCARI      FOG       24  22  91 NE6       30.03R VSB 3/4 WCI  17
$$

USA.gov is the U.S. government's official web portal to all federal, state and local government web resources and services.